Location: Newark
(9.4667°S, 159.8167°E)
Time: 04:58:23
(UTC+00:00)

Courier 1B Rocket - Pass Details

Date: 23 November 2019
Orbit: 920 x 1202 km, 28.2° (Epoch: 05 December)

Event Time Altitude Azimuth Distance (km) Brightness Sun altitude
Rises 09:15:55 0° 329° (NNW) 4,048 8.3 -25.9°
Reaches altitude 10° 09:19:33 10° 344° (NNW) 3,109 7.5 -26.6°
Enters shadow 09:20:56 14° 353° (N) 2,819 7.2 -26.9°
Maximum altitude 09:25:08 21° 30° (NNE) 2,386 - -27.8°
Drops below altitude 10° 09:30:43 10° 77° (ENE) 3,116 - -29.0°
Sets 09:34:20 0° 91° (E) 4,059 - -29.8°
